Location: Fontenoy
(49.4072°N, 3.2008°E)
Time: 11:16:20
(UTC+00:00)

Cosmos 2219 Rocket - Pass Details

Date: 15 May 2026
Orbit: 826 x 846 km, 71.0° (Epoch: 8 June)

Event Time Altitude Azimuth Distance (km) Brightness Sun altitude
Rises 21:57:24 0° 329° (NNW) 3,406 7.1 -17.6°
Reaches altitude 10° 21:59:52 10° 327° (NNW) 2,470 5.9 -17.8°
Maximum altitude 22:05:28 66° 247° (WSW) 918 2.3 -18.2°
Enters shadow 22:08:13 31° 174° (S) 1,448 2.9 -18.4°
